Weather in Khorostkiv

Ukraine / Ternopil District     49°12′40″N   25°55′03″E
temp.,
°C
wind,
m/s
gust,
m/s
humid.,
%
clouds,
%
prec.,
mm/h
press.,
hPa
HPBL,
m
10 may, mon
mon1000:00+8sse36705 0.0 102496
03:00+7sse411686 0.0 1024181
06:00+6se411715 0.0 1024187
09:00+11sse611595 0.0 1024441
12:00+16sse795027 0.0 1023964
15:00+18se784816 0.0 10221266
18:00+18se67580 0.0 10211174
21:00+11ese49800 0.0 1022164
11 may, tue
tue1100:00+9ese412770 0.0 1022206
03:00+8ese512780 0.0 1022230
06:00+7ese412800 0.0 1022237
09:00+12se711630 0.0 1022538
12:00+16se67530 0.0 10201090
15:00+18se66390 0.0 10191266
18:00+17ese57510 0.0 10171126
21:00+12ese37780 0.0 1017102
12 may, wed
wed1200:00+11ese39920 0.0 1017171
03:00+10ese37930 0.0 1015119
06:00+10e379647 0.0 1014156
09:00+11e61187100 0.0 1014568
12:00+11ese697025 0.0 1014927
15:00+16ese77505 0.0 10121665
18:00+13ese776113 0.0 10121332
21:00+8ese511741 0.0 1012377
13 may, thu
thu1300:00+6se411865 0.0 1011269
03:00+6se5138597 0.0 1009412
06:00+8se7148892 0.0 1007670
09:00+8sse71495100 0.8 1006656
12:00+13sse91374100 0.4 10051029
15:00+14sse91175100 0.4 10051107
18:00+11se71287100 0.1 1006764
21:00+12se51084100 0.1 1006546
14 may, fri
fri1400:00+11se4885100 0.0 1006340
03:00+10sse3689100 0.0 1006192
06:00+10sse2290100 0.0 100663
09:00+12ssw2384100 0.0 1007225
12:00+14sw4579100 0.0 1008485
15:00+13w347996 0.1 1009262
18:00+17wsw236254 0.0 1008917
21:00+12wsw228295 0.1 100913